Location: Unspecified
(0.0000°N, 0.0000°E)
Time: 07:29:43
(UTC+02:00)

Centaur D-1AR AC-41 - Visible Passes

Search period start: 17 September 2014 00:00
Search period end: 27 September 2014 00:00
Orbit: 666 x 36178 km, 21.4° (Epoch: 15 September)

Date Brightness Start Highest point End Pass type
(mag) Time Alt. Az. Time Alt. Az. Time Alt. Az.
17 Sep 9.3 02:26:29 10° WNW 04:05:41 39° WNW 08:28:26 10° W visible
17 Sep 7.9 23:40:02 10° WNW 02:03:59 77° NW 09:49:18 10° ESE visible
18 Sep 8.2 21:04:48 10° NW 03:22:52 84° SSE 07:15:37 10° ESE visible
19 Sep 7.4 18:32:41 10° WNW 02:41:50 54° ESE 04:35:17 10° ESE visible
20 Sep 10.1 22:49:05 10° E 00:19:22 16° ESE 01:18:07 10° ESE visible
21 Sep 9.8 04:13:48 10° WNW 05:15:06 17° W 05:40:06 16° W visible
22 Sep 7.0 01:00:12 10° WNW 02:50:49 56° WNW 11:03:56 10° ESE visible
22 Sep 8.5 22:20:33 10° WNW 02:49:49 83° W 08:31:37 10° ESE visible
23 Sep 7.9 19:47:13 10° NW 03:26:21 74° SE 05:55:56 10° ESE visible
24 Sep 9.7 22:10:07 18° E 01:27:59 37° ESE 03:08:22 10° ESE visible
26 Sep 9.4 02:28:11 10° WNW 03:59:44 33° W 07:39:02 10° W visible
26 Sep 8.8 23:38:04 10° WNW 00:00:00 45° NW 00:00:00 45° NW visible
